Location: Moy Burn
(57.3833°N, 4.0667°W)
Time: 09:57:31
(UTC+00:00)

Cosmos 1066 Rocket - Pass Details

Date: 08 August 2020
Orbit: 798 x 895 km, 81.2° (Epoch: 18 September)

Event Time Altitude Azimuth Distance (km) Brightness Sun altitude
Rises 22:41:49 0° 344° (NNW) 3,503 9.3 -13.9°
Reaches altitude 10° 22:44:20 10° 348° (NNW) 2,550 8.0 -14.1°
Maximum altitude 22:50:06 64° 70° (ENE) 960 4.5 -14.4°
Enters shadow 22:53:54 21° 147° (SSE) 1,823 5.3 -14.6°
